Moline, IL

3:50 AM CST on December 14, 2019 (GMT -0600)
Quad-City International

Weather History for KMLI - November, 2019

Change the Weather History Date:

Friday, November 15, 2019

  Actual Average Record
Temperature  
Mean Temperature 33 °F 40 °F  
Max Temperature 47 °F 50 °F 72 °F (2001)
Min Temperature 18 °F 31 °F -1 °F (1959)
Degree Days  
Heating Degree Days 32 25  
Month to date heating degree days 488 314  
Since 1 July heating degree days 938 796  
Cooling Degree Days 0 0  
Month to date cooling degree days 0 0  
Year to date cooling degree days 1249 1003  
Moisture  
Dew Point 23 °F    
Average Humidity 69    
Maximum Humidity 85    
Minimum Humidity 53    
Precipitation  
Precipitation 0.00 in 0.09 in 1.71 in (1961)
Month to date precipitation 0.27 1.32  
Year to date precipitation 45.80 34.54  
Snow  
Snow 0.00 in 0.10 in - ()
Month to date snowfall 3.5 0.2  
Since 1 July snowfall 9.3 0.2  
Since 1 September snowfall 9.3 0.2  
Snow Depth 1.00 in    
Sea Level Pressure  
Sea Level Pressure 30.39 in    
Wind  
Wind Speed 4 mph (SW)    
Max Wind Speed 9 mph    
Max Gust Speed 11 mph    
Visibility 8 miles    
Events      
T = Trace of Precipitation, MM = Missing Value Source: NWS Daily Summary

Daily Weather History Graph

Daily Weather History Graph

Search for Another Location

Airport or City:

Astronomy

Nov. 15, 2019 Rise Set
Actual Time 6:50 AM CST 4:42 PM CST
Civil Twilight 6:20 AM CST 5:12 PM CST
Nautical Twilight 5:47 AM CST 5:45 PM CST
Astronomical Twilight 5:14 AM CST 6:18 PM CST
Moon 7:16 PM CST (11/15) 9:48 AM CST (11/15)
Length of Visible Light 10h 51m
Length of Day
9h 52m
Waning Gibbous, 90% of the Moon is Illuminated
Nov 15
Waning Gibbous
Nov 19
Last Quarter
Nov 26
New
Dec 4
First Quarter
Dec 11
Full

Hourly Weather History & Observations

Time (CST) Temp. Windchill Dew Point Humidity Pressure Visibility Wind Dir Wind Speed Gust Speed Precip Events Conditions
12:52 AM 19.9 °F 14.9 °F 15.1 °F 81% 30.36 in 8.0 mi SW 3.5 mph - N/A   Clear
1:52 AM 19.9 °F 11.1 °F 15.1 °F 81% 30.37 in 8.0 mi SW 6.9 mph - N/A   Clear
2:52 AM 19.9 °F 13.4 °F 15.1 °F 81% 30.38 in 7.0 mi WSW 4.6 mph - N/A   Clear
3:52 AM 21.0 °F 13.4 °F 16.0 °F 81% 30.37 in 8.0 mi WSW 5.8 mph - N/A   Clear
4:52 AM 21.0 °F 13.4 °F 16.0 °F 81% 30.37 in 8.0 mi SW 5.8 mph - N/A   Clear
5:52 AM 21.9 °F 14.5 °F 16.0 °F 78% 30.38 in 8.0 mi WSW 5.8 mph - N/A   Clear
6:52 AM 21.0 °F 13.4 °F 16.0 °F 81% 30.38 in 6.0 mi WSW 5.8 mph - N/A   Haze
7:52 AM 25.0 °F 20.7 °F 19.0 °F 78% 30.40 in 6.0 mi West 3.5 mph - N/A   Haze
8:52 AM 30.0 °F 22.4 °F 21.9 °F 72% 30.41 in 7.0 mi West 8.1 mph - N/A   Clear
9:52 AM 34.0 °F 28.8 °F 23.0 °F 64% 30.41 in 8.0 mi West 5.8 mph - N/A   Clear
10:52 AM 39.0 °F 35.7 °F 25.0 °F 57% 30.41 in - West 4.6 mph - N/A   Clear
11:52 AM 42.1 °F - 26.1 °F 53% 30.39 in 10.0 mi Calm Calm - N/A   Clear
12:52 PM 44.1 °F - 28.0 °F 53% 30.38 in 10.0 mi Calm Calm - N/A   Clear
1:52 PM 44.1 °F - 28.9 °F 55% 30.37 in 10.0 mi Calm Calm - N/A   Clear
2:52 PM 46.0 °F - 30.0 °F 54% 30.37 in 10.0 mi Calm Calm - N/A   Clear
3:52 PM 44.1 °F - 30.9 °F 60% 30.37 in 10.0 mi Calm Calm - N/A   Clear
4:52 PM 36.0 °F 32.1 °F 30.0 °F 79% 30.38 in 9.0 mi East 4.6 mph - N/A   Clear
5:52 PM 33.1 °F 28.7 °F 28.0 °F 82% 30.38 in 9.0 mi East 4.6 mph - N/A   Clear
6:52 PM 30.0 °F 24.1 °F 26.1 °F 85% 30.40 in 8.0 mi East 5.8 mph - N/A   Clear
7:52 PM 30.9 °F 26.2 °F 26.1 °F 82% 30.40 in 8.0 mi East 4.6 mph - N/A   Clear
8:52 PM 28.9 °F 22.8 °F 25.0 °F 85% 30.40 in 7.0 mi East 5.8 mph - N/A   Clear
9:52 PM 28.9 °F 25.2 °F 25.0 °F 85% 30.41 in 6.0 mi East 3.5 mph - N/A   Clear
10:52 PM 28.0 °F 24.2 °F 25.0 °F 88% 30.41 in 6.0 mi East 3.5 mph - N/A   Clear
11:52 PM 30.0 °F - 26.1 °F 85% 30.41 in 6.0 mi Calm Calm - N/A   Clear